Location: Unspecified
(42.9300°N, 71.1866°W)
Time: 12:10:38
(UTC-04:00)

CZ-3 Stage 3 - Visible Passes

Search period start: 27 May 2016 00:00
Search period end: 06 June 2016 00:00
Orbit: 421 x 34783 km, 30.4° (Epoch: 25 May)

Date Brightness Start Highest point End Pass type
(mag) Time Alt. Az. Time Alt. Az. Time Alt. Az.
27 May 4.0 03:27:50 10° WSW 03:36:58 25° SSW 03:40:20 10° SE visible
27 May 5.8 18:11:34 10° SSW 23:55:07 39° S 00:05:24 10° ESE visible
30 May 3.9 03:19:15 10° WSW 03:28:32 26° SSW 03:31:54 10° SE visible
30 May 5.8 17:50:34 10° SSW 23:46:46 40° S 23:57:03 10° ESE visible
02 Jun 4.0 03:10:41 10° WSW 03:20:04 26° SSW 03:23:29 10° SE visible
02 Jun 5.8 17:31:10 10° S 23:38:27 41° S 23:48:43 10° ESE visible
05 Jun 4.0 03:02:07 10° WSW 03:11:38 26° SSW 03:15:04 10° SE visible
05 Jun 5.7 17:12:57 10° S 23:30:07 43° S 23:40:22 10° ESE visible
